BEIDOU I1-S

Last updated on Tue Apr 02 2019 03:15:24 GMT+0000 (Coordinated Universal Time)

1 40549U 15019A 19091.62063209 -.00000156 00000-0 00000+0 0 9998 2 40549 53.6647 326.2928 0037268 188.0802 355.1595 1.00269507 14671

Satellite not in orbit

BEIDOU I1-S